| time (UTC) | temp F | wind direction | speed knots | gust knots | rain 1hr in | rain 24hr in | rain mn in | humidity % | barometer mb |
| 20260506202008 | 69 | 214 | 1.7 | 7.0 | 0.00 | 0.00 | 0.00 | 68 | 1007.1 |
| 20260506201530 | 70 | 227 | 1.7 | 7.0 | 0.00 | 0.00 | 0.00 | 69 | 1007.0 |
| 20260506201006 | 69 | 315 | 0.9 | 2.6 | 0.00 | 0.00 | 0.00 | 70 | 1007.1 |
| 20260506200509 | 69 | 252 | 0.9 | 3.5 | 0.00 | 0.00 | 0.00 | 71 | 1007.3 |
| 20260506200017 | 68 | 238 | 1.7 | 3.5 | 0.00 | 0.00 | 0.00 | 71 | 1007.3 |
| 20260506195506 | 68 | 292 | 0.9 | 4.3 | 0.00 | 0.00 | 0.00 | 72 | 1007.4 |
| 20260506195008 | 68 | 334 | 1.7 | 5.2 | 0.00 | 0.00 | 0.00 | 72 | 1007.5 |
| 20260506194516 | 68 | 315 | 1.7 | 5.2 | 0.00 | 0.00 | 0.00 | 72 | 1007.7 |
| 20260506194008 | 68 | 329 | 0.9 | 7.8 | 0.00 | 0.00 | 0.00 | 72 | 1007.6 |
| 20260506193505 | 68 | 322 | 2.6 | 7.8 | 0.00 | 0.00 | 0.00 | 72 | 1007.8 |
| 20260506193019 | 68 | 192 | 1.7 | 7.8 | 0.00 | 0.00 | 0.00 | 72 | 1007.7 |
| 20260506192504 | 68 | 219 | 3.5 | 7.8 | 0.00 | 0.00 | 0.00 | 72 | 1007.8 |
| 20260506192006 | 67 | 268 | 1.7 | 8.7 | 0.00 | 0.00 | 0.00 | 72 | 1007.8 |
| 20260506191522 | 67 | 224 | 4.3 | 12.2 | 0.00 | 0.00 | 0.00 | 72 | 1007.9 |
| 20260506191011 | 67 | 124 | 1.7 | 12.2 | 0.00 | 0.00 | 0.00 | 73 | 1008.0 |
| 20260506190507 | 67 | 133 | 1.7 | 7.0 | 0.00 | 0.00 | 0.00 | 73 | 1007.9 |
| 20260506190020 | 67 | 248 | 1.7 | 8.7 | 0.00 | 0.00 | 0.00 | 73 | 1008.0 |
| 20260506185507 | 67 | 259 | 2.6 | 8.7 | 0.00 | 0.00 | 0.00 | 72 | 1007.9 |
| 20260506185009 | 67 | 228 | 3.5 | 8.7 | 0.00 | 0.00 | 0.00 | 72 | 1008.0 |
| 20260506184521 | 67 | 213 | 0.9 | 8.7 | 0.00 | 0.00 | 0.00 | 72 | 1008.1 |
| 20260506184009 | 67 | 252 | 2.6 | 8.7 | 0.00 | 0.00 | 0.00 | 72 | 1008.2 |
| 20260506183505 | 67 | 223 | 2.6 | 9.6 | 0.00 | 0.00 | 0.00 | 72 | 1008.2 |
| 20260506183027 | 67 | 202 | 2.6 | 9.6 | 0.00 | 0.00 | 0.00 | 72 | 1008.1 |
| 20260506182505 | 67 | 253 | 1.7 | 8.7 | 0.00 | 0.00 | 0.00 | 72 | 1008.2 |
| 20260506182011 | 67 | 238 | 1.7 | 9.6 | 0.00 | 0.00 | 0.00 | 71 | 1008.3 |
| 20260506181522 | 67 | 219 | 3.5 | 9.6 | 0.00 | 0.00 | 0.00 | 71 | 1008.3 |
| 20260506181007 | 67 | 308 | 2.6 | 9.6 | 0.00 | 0.00 | 0.00 | 70 | 1008.2 |
| 20260506180507 | 67 | 65 | 3.5 | 9.6 | 0.00 | 0.00 | 0.00 | 70 | 1008.4 |
| 20260506180021 | 67 | 206 | 2.6 | 12.2 | 0.00 | 0.00 | 0.00 | 70 | 1008.4 |
| 20260506175505 | 67 | 219 | 6.1 | 12.2 | 0.00 | 0.00 | 0.00 | 68 | 1008.6 |
| 20260506175006 | 68 | 102 | 2.6 | 7.8 | 0.00 | 0.00 | 0.00 | 68 | 1008.7 |
| 20260506174521 | 68 | 244 | 3.5 | 13.9 | 0.00 | 0.00 | 0.00 | 67 | 1008.6 |
| 20260506174008 | 68 | 247 | 3.5 | 19.1 | 0.00 | 0.00 | 0.00 | 65 | 1008.6 |
| 20260506173506 | 69 | 283 | 4.3 | 19.1 | 0.00 | 0.00 | 0.00 | 64 | 1008.6 |
| 20260506173023 | 69 | 256 | 2.6 | 15.6 | 0.00 | 0.00 | 0.00 | 65 | 1008.7 |
| 20260506172508 | 69 | 327 | 2.6 | 15.6 | 0.00 | 0.00 | 0.00 | 64 | 1008.7 |
| 20260506172006 | 69 | 221 | 2.6 | 6.1 | 0.00 | 0.00 | 0.00 | 65 | 1008.8 |
| 20260506171526 | 70 | 180 | 0.9 | 15.6 | 0.00 | 0.00 | 0.00 | 65 | 1008.6 |
| 20260506171008 | 70 | 323 | 3.5 | 15.6 | 0.00 | 0.00 | 0.00 | 64 | 1008.7 |
| 20260506170507 | 70 | 238 | 3.5 | 13.0 | 0.00 | 0.00 | 0.00 | 65 | 1008.7 |
| 20260506170024 | 70 | 306 | 2.6 | 7.8 | 0.00 | 0.00 | 0.00 | 65 | 1008.8 |
| 20260506165510 | 70 | 125 | 1.7 | 9.6 | 0.00 | 0.00 | 0.00 | 67 | 1008.9 |
| 20260506165005 | 70 | 294 | 3.5 | 7.8 | 0.00 | 0.00 | 0.00 | 68 | 1008.9 |
| 20260506164524 | 70 | 122 | 1.7 | 7.8 | 0.00 | 0.00 | 0.00 | 68 | 1009.2 |
| 20260506164009 | 70 | 189 | 2.6 | 8.7 | 0.00 | 0.00 | 0.00 | 62 | 1009.1 |
| 20260506163507 | 71 | 138 | 1.7 | 8.7 | 0.00 | 0.00 | 0.00 | 61 | 1009.0 |
| 20260506163022 | 71 | 214 | 2.6 | 8.7 | 0.00 | 0.00 | 0.00 | 61 | 1009.2 |
| 20260506162508 | 71 | 197 | 0.0 | 6.1 | 0.00 | 0.00 | 0.00 | 61 | 1009.5 |
| 20260506162008 | 71 | 216 | 0.9 | 6.1 | 0.00 | 0.00 | 0.00 | 60 | 1009.8 |
| 20260506161524 | 71 | 288 | 0.9 | 10.4 | 0.00 | 0.00 | 0.00 | 61 | 1009.9 |
| 20260506161007 | 70 | 298 | 3.5 | 10.4 | 0.00 | 0.00 | 0.00 | 60 | 1009.9 |
| 20260506160506 | 70 | 19 | 2.6 | 7.8 | 0.00 | 0.00 | 0.00 | 60 | 1009.8 |
| 20260506160025 | 70 | 74 | 1.7 | 7.8 | 0.00 | 0.00 | 0.00 | 61 | 1009.7 |
| 20260506155502 | 70 | 281 | 1.7 | 11.3 | 0.00 | 0.00 | 0.00 | 61 | 1009.8 |
| 20260506155003 | 70 | 180 | 2.6 | 11.3 | 0.00 | 0.00 | 0.00 | 60 | 1009.7 |
| 20260506154507 | 70 | 351 | 2.6 | 10.4 | 0.00 | 0.00 | 0.00 | 59 | 1009.7 |
| 20260506154004 | 70 | 213 | 1.7 | 10.4 | 0.00 | 0.00 | 0.00 | 60 | 1009.6 |
| 20260506153501 | 70 | 135 | 1.7 | 7.0 | 0.00 | 0.00 | 0.00 | 60 | 1009.7 |
| 20260506153011 | 70 | 351 | 1.7 | 9.6 | 0.00 | 0.00 | 0.00 | 59 | 1009.8 |
| 20260506152504 | 70 | 113 | 3.5 | 9.6 | 0.00 | 0.00 | 0.00 | 59 | 1009.7 |
| 20260506152006 | 70 | 273 | 1.7 | 7.8 | 0.00 | 0.00 | 0.00 | 59 | 1009.9 |
| 20260506151519 | 71 | 215 | 3.5 | 8.7 | 0.00 | 0.00 | 0.00 | 57 | 1009.7 |
| 20260506151008 | 71 | 123 | 2.6 | 8.7 | 0.00 | 0.00 | 0.00 | 59 | 1009.8 |
| 20260506150507 | 71 | 34 | 1.7 | 8.7 | 0.00 | 0.00 | 0.00 | 58 | 1009.8 |
| 20260506150022 | 70 | 336 | 2.6 | 8.7 | 0.00 | 0.00 | 0.00 | 58 | 1009.9 |
| 20260506145506 | 70 | 301 | 1.7 | 7.8 | 0.00 | 0.00 | 0.00 | 59 | 1009.8 |
| 20260506145011 | 69 | 242 | 0.9 | 7.8 | 0.00 | 0.00 | 0.00 | 59 | 1009.8 |
| 20260506144506 | 69 | 24 | 2.6 | 6.1 | 0.00 | 0.00 | 0.00 | 59 | 1009.9 |
| 20260506144002 | 70 | 227 | 1.7 | 5.2 | 0.00 | 0.00 | 0.00 | 59 | 1009.9 |
| 20260506143506 | 70 | 200 | 2.6 | 9.6 | 0.00 | 0.00 | 0.00 | 59 | 1009.9 |
| 20260506143022 | 70 | 249 | 2.6 | 9.6 | 0.00 | 0.00 | 0.00 | 58 | 1010.0 |
| 20260506142503 | 70 | 152 | 1.7 | 7.8 | 0.00 | 0.00 | 0.00 | 58 | 1009.9 |
| 20260506142005 | 71 | 210 | 1.7 | 7.0 | 0.00 | 0.00 | 0.00 | 58 | 1009.9 |
| 20260506141513 | 71 | 258 | 3.5 | 7.8 | 0.00 | 0.00 | 0.00 | 58 | 1010.0 |
| 20260506141009 | 71 | 112 | 3.5 | 7.8 | 0.00 | 0.00 | 0.00 | 58 | 1009.8 |
| 20260506140506 | 71 | 229 | 1.7 | 8.7 | 0.00 | 0.00 | 0.00 | 58 | 1009.7 |
| 20260506140018 | 70 | 165 | 1.7 | 8.7 | 0.00 | 0.00 | 0.00 | 59 | 1009.7 |
| 20260506135511 | 70 | 151 | 2.6 | 7.8 | 0.00 | 0.00 | 0.00 | 59 | 1009.7 |
| 20260506135008 | 70 | 290 | 4.3 | 10.4 | 0.00 | 0.00 | 0.00 | 58 | 1009.8 |
| 20260506134526 | 70 | 221 | 2.6 | 10.4 | 0.00 | 0.00 | 0.00 | 58 | 1009.8 |
| 20260506134008 | 70 | 119 | 1.7 | 14.8 | 0.00 | 0.00 | 0.00 | 58 | 1009.7 |
| 20260506133503 | 70 | 305 | 4.3 | 14.8 | 0.00 | 0.00 | 0.00 | 58 | 1009.6 |
| 20260506133007 | 71 | 265 | 4.3 | 10.4 | 0.00 | 0.00 | 0.00 | 57 | 1009.8 |
| 20260506132502 | 71 | 181 | 1.7 | 9.6 | 0.00 | 0.00 | 0.00 | 58 | 1009.8 |
| 20260506132008 | 71 | 131 | 2.6 | 9.6 | 0.00 | 0.00 | 0.00 | 58 | 1010.0 |
| 20260506131512 | 72 | 244 | 3.5 | 9.6 | 0.00 | 0.00 | 0.00 | 56 | 1010.2 |
| 20260506131007 | 72 | 338 | 2.6 | 8.7 | 0.00 | 0.00 | 0.00 | 58 | 1010.1 |
| 20260506130506 | 71 | 46 | 3.5 | 13.9 | 0.00 | 0.00 | 0.00 | 57 | 1010.2 |
| 20260506130022 | 71 | 223 | 3.5 | 13.9 | 0.00 | 0.00 | 0.00 | 59 | 1010.2 |
| 20260506125506 | 70 | 236 | 2.6 | 7.8 | 0.00 | 0.00 | 0.00 | 58 | 1010.2 |
| 20260506125007 | 70 | 165 | 2.6 | 9.6 | 0.00 | 0.00 | 0.00 | 60 | 1010.2 |
| 20260506124524 | 69 | 251 | 3.5 | 11.3 | 0.00 | 0.00 | 0.00 | 61 | 1010.1 |
| 20260506124008 | 69 | 301 | 1.7 | 11.3 | 0.00 | 0.00 | 0.00 | 62 | 1010.2 |
| 20260506123508 | 69 | 274 | 3.5 | 19.1 | 0.00 | 0.00 | 0.00 | 61 | 1010.1 |
| 20260506123031 | 69 | 275 | 4.3 | 19.1 | 0.00 | 0.00 | 0.00 | 62 | 1010.2 |
| 20260506122508 | 68 | 239 | 1.7 | 7.0 | 0.00 | 0.00 | 0.00 | 63 | 1010.2 |
| 20260506122012 | 68 | 140 | 2.6 | 11.3 | 0.00 | 0.00 | 0.00 | 64 | 1010.2 |
| 20260506121529 | 67 | 234 | 1.7 | 11.3 | 0.00 | 0.00 | 0.00 | 66 | 1010.3 |
| 20260506121010 | 66 | 207 | 2.6 | 8.7 | 0.00 | 0.00 | 0.00 | 66 | 1010.2 |
| 20260506120511 | 67 | 168 | 1.7 | 7.8 | 0.00 | 0.00 | 0.00 | 66 | 1010.3 |
| 20260506120038 | 67 | 165 | 0.9 | 7.8 | 0.00 | 0.00 | 0.00 | 67 | 1010.3 |
| 20260506115504 | 66 | 217 | 0.9 | 7.8 | 0.00 | 0.00 | 0.00 | 68 | 1010.4 |
| 20260506115006 | 65 | 255 | 2.6 | 6.1 | 0.00 | 0.00 | 0.00 | 68 | 1010.3 |
| 20260506114521 | 65 | 241 | 2.6 | 7.8 | 0.00 | 0.00 | 0.00 | 69 | 1010.4 |
| 20260506114010 | 65 | 174 | 2.6 | 10.4 | 0.00 | 0.00 | 0.00 | 69 | 1010.3 |
| 20260506113509 | 65 | 288 | 3.5 | 10.4 | 0.00 | 0.00 | 0.00 | 69 | 1010.3 |
| 20260506113029 | 65 | 193 | 3.5 | 7.0 | 0.00 | 0.00 | 0.00 | 70 | 1010.3 |
| 20260506112512 | 64 | 273 | 0.9 | 5.2 | 0.00 | 0.00 | 0.00 | 71 | 1010.4 |
| 20260506112016 | 64 | 351 | 1.7 | 10.4 | 0.00 | 0.00 | 0.00 | 72 | 1010.6 |
| 20260506111527 | 64 | 226 | 1.7 | 11.3 | 0.00 | 0.00 | 0.00 | 72 | 1010.6 |
| 20260506111017 | 64 | 246 | 2.6 | 11.3 | 0.00 | 0.00 | 0.00 | 72 | 1010.4 |
| 20260506110510 | 63 | 230 | 1.7 | 5.2 | 0.00 | 0.00 | 0.00 | 72 | 1010.5 |
| 20260506110031 | 63 | 189 | 1.7 | 10.4 | 0.00 | 0.00 | 0.00 | 72 | 1010.4 |
| 20260506105511 | 63 | 228 | 2.6 | 10.4 | 0.00 | 0.00 | 0.00 | 72 | 1010.3 |
| 20260506105009 | 63 | 171 | 0.9 | 8.7 | 0.00 | 0.00 | 0.00 | 73 | 1010.3 |
| 20260506104520 | 63 | 104 | 2.6 | 7.8 | 0.00 | 0.00 | 0.00 | 73 | 1010.4 |
| 20260506104006 | 63 | 281 | 2.6 | 7.8 | 0.00 | 0.00 | 0.00 | 74 | 1010.3 |
| 20260506103507 | 63 | 281 | 1.7 | 5.2 | 0.00 | 0.00 | 0.00 | 74 | 1010.4 |
| 20260506103026 | 62 | 181 | 1.7 | 5.2 | 0.00 | 0.00 | 0.00 | 75 | 1010.5 |
| 20260506102507 | 62 | 225 | 0.9 | 7.0 | 0.00 | 0.00 | 0.00 | 75 | 1010.4 |
| 20260506102009 | 62 | 219 | 0.9 | 7.0 | 0.00 | 0.00 | 0.00 | 75 | 1010.4 |
| 20260506101528 | 62 | 88 | 1.7 | 4.3 | 0.00 | 0.00 | 0.00 | 75 | 1010.3 |
| 20260506101009 | 62 | 150 | 0.9 | 7.0 | 0.00 | 0.00 | 0.00 | 75 | 1010.2 |
| 20260506100509 | 63 | 119 | 1.7 | 7.0 | 0.00 | 0.00 | 0.00 | 75 | 1010.1 |
| 20260506100029 | 63 | 174 | 1.7 | 6.1 | 0.00 | 0.00 | 0.00 | 75 | 1010.1 |
| 20260506095505 | 62 | 235 | 0.9 | 4.3 | 0.00 | 0.00 | 0.00 | 75 | 1010.1 |
| 20260506095004 | 63 | 219 | 0.9 | 4.3 | 0.00 | 0.00 | 0.00 | 75 | 1010.1 |
| 20260506094520 | 63 | 149 | 1.7 | 8.7 | 0.00 | 0.00 | 0.00 | 75 | 1010.0 |
| 20260506094006 | 63 | 225 | 3.5 | 8.7 | 0.00 | 0.00 | 0.00 | 76 | 1010.0 |
| 20260506093507 | 62 | 124 | 0.9 | 8.7 | 0.00 | 0.00 | 0.00 | 76 | 1009.9 |
| 20260506093026 | 63 | 186 | 0.9 | 8.7 | 0.00 | 0.00 | 0.00 | 75 | 1010.1 |
| 20260506092506 | 63 | 156 | 0.9 | 7.8 | 0.00 | 0.00 | 0.00 | 75 | 1010.0 |
| 20260506092013 | 63 | 305 | 1.7 | 7.8 | 0.00 | 0.00 | 0.00 | 75 | 1010.2 |
| 20260506091524 | 63 | 294 | 0.9 | 7.8 | 0.00 | 0.00 | 0.00 | 75 | 1010.2 |
| 20260506091009 | 63 | 207 | 2.6 | 7.8 | 0.00 | 0.00 | 0.00 | 75 | 1010.2 |
| 20260506090510 | 63 | 219 | 1.7 | 7.0 | 0.00 | 0.00 | 0.00 | 75 | 1010.3 |
| 20260506090042 | 63 | 137 | 1.7 | 7.0 | 0.00 | 0.00 | 0.00 | 75 | 1010.3 |
| 20260506085504 | 63 | 186 | 1.7 | 9.6 | 0.00 | 0.00 | 0.00 | 76 | 1010.4 |
| 20260506085002 | 63 | 159 | 1.7 | 9.6 | 0.00 | 0.00 | 0.00 | 75 | 1010.3 |
| 20260506084517 | 63 | 149 | 0.9 | 7.8 | 0.00 | 0.00 | 0.00 | 75 | 1010.3 |
| 20260506084007 | 63 | 220 | 3.5 | 7.8 | 0.00 | 0.00 | 0.00 | 75 | 1010.4 |
| 20260506083508 | 63 | 10 | 1.7 | 7.0 | 0.00 | 0.00 | 0.00 | 75 | 1010.4 |
| 20260506083022 | 63 | 232 | 0.9 | 7.0 | 0.00 | 0.00 | 0.00 | 75 | 1010.4 |
| 20260506082507 | 63 | 276 | 1.7 | 6.1 | 0.00 | 0.00 | 0.00 | 75 | 1010.4 |
| 20260506082009 | 63 | 159 | 1.7 | 6.1 | 0.00 | 0.00 | 0.00 | 75 | 1010.4 |
| 20260506081523 | 63 | 199 | 1.7 | 6.1 | 0.00 | 0.00 | 0.00 | 75 | 1010.5 |
| 20260506081008 | 63 | 30 | 1.7 | 6.1 | 0.00 | 0.00 | 0.00 | 75 | 1010.4 |
| 20260506080509 | 63 | 232 | 1.7 | 7.8 | 0.00 | 0.00 | 0.00 | 76 | 1010.3 |
| 20260506073506 | 64 | 138 | 2.6 | 7.0 | 0.00 | 0.00 | 0.00 | 75 | 1010.4 |
| 20260506073021 | 64 | 126 | 0.9 | 7.0 | 0.00 | 0.00 | 0.00 | 75 | 1010.4 |
| 20260506072511 | 64 | 184 | 1.7 | 7.0 | 0.00 | 0.00 | 0.00 | 75 | 1010.5 |
| 20260506072006 | 64 | 186 | 1.7 | 5.2 | 0.00 | 0.00 | 0.00 | 74 | 1010.5 |
| 20260506071524 | 64 | 216 | 0.0 | 5.2 | 0.00 | 0.00 | 0.00 | 74 | 1010.6 |
| 20260506071007 | 64 | 200 | 1.7 | 7.0 | 0.00 | 0.00 | 0.00 | 74 | 1010.6 |
| 20260506070510 | 64 | 241 | 2.6 | 7.0 | 0.00 | 0.00 | 0.00 | 74 | 1010.6 |
| 20260506062508 | 65 | 219 | 1.7 | 7.8 | 0.00 | 0.00 | 0.00 | 72 | 1010.7 |
| 20260506062010 | 65 | 266 | 1.7 | 7.8 | 0.00 | 0.00 | 0.00 | 72 | 1010.7 |
| 20260506061503 | 65 | 153 | 1.7 | 7.8 | 0.00 | 0.00 | 0.00 | 72 | 1010.7 |
| 20260506061003 | 65 | 273 | 0.9 | 7.0 | 0.00 | 0.00 | 0.00 | 72 | 1010.7 |
| 20260506060504 | 65 | 161 | 1.7 | 8.7 | 0.00 | 0.00 | 0.00 | 72 | 1010.8 |
| 20260506051008 | 66 | 223 | 2.6 | 8.7 | 0.00 | 0.00 | 0.00 | 70 | 1011.2 |
| 20260506050502 | 66 | 89 | 1.7 | 8.7 | 0.00 | 0.00 | 0.00 | 70 | 1011.2 |
| 20260506045005 | 67 | 123 | 0.9 | 6.1 | 0.00 | 0.00 | 0.00 | 69 | 1011.2 |
| 20260506044508 | 66 | 281 | 1.7 | 6.1 | 0.00 | 0.00 | 0.00 | 69 | 1011.2 |
| 20260506044004 | 67 | 133 | 1.7 | 7.0 | 0.00 | 0.00 | 0.00 | 68 | 1011.2 |
| 20260506043505 | 67 | 243 | 1.7 | 7.0 | 0.00 | 0.00 | 0.00 | 68 | 1011.2 |
| 20260506043024 | 67 | 146 | 2.6 | 6.1 | 0.00 | 0.00 | 0.00 | 68 | 1011.2 |
| 20260506042505 | 67 | 115 | 0.9 | 10.4 | 0.00 | 0.00 | 0.00 | 68 | 1011.1 |
| 20260506042008 | 67 | 224 | 2.6 | 10.4 | 0.00 | 0.00 | 0.00 | 68 | 1011.1 |
| 20260506041524 | 67 | 132 | 1.7 | 6.1 | 0.00 | 0.00 | 0.00 | 68 | 1011.0 |
| 20260506041008 | 67 | 311 | 0.9 | 6.1 | 0.00 | 0.00 | 0.00 | 68 | 1011.1 |
| 20260506040509 | 67 | 256 | 0.9 | 10.4 | 0.00 | 0.00 | 0.00 | 67 | 1011.0 |
| 20260506040022 | 67 | 263 | 3.5 | 10.4 | 0.00 | 0.00 | 0.00 | 67 | 1011.1 |
| 20260506035502 | 67 | 236 | 0.9 | 8.7 | 0.00 | 0.00 | 0.00 | 67 | 1011.0 |
| 20260506035003 | 67 | 185 | 2.6 | 8.7 | 0.00 | 0.00 | 0.00 | 67 | 1011.1 |
| 20260506034528 | 66 | 11 | 0.9 | 5.2 | 0.00 | 0.00 | 0.00 | 67 | 1011.1 |
| 20260506034002 | 66 | 269 | 0.9 | 5.2 | 0.00 | 0.00 | 0.00 | 67 | 1011.1 |
| 20260506033503 | 66 | 190 | 0.9 | 7.8 | 0.00 | 0.00 | 0.00 | 67 | 1011.2 |
| 20260506033017 | 66 | 161 | 0.9 | 7.8 | 0.00 | 0.00 | 0.00 | 67 | 1011.2 |
| 20260506032504 | 66 | 236 | 2.6 | 7.8 | 0.00 | 0.00 | 0.00 | 68 | 1011.2 |
| 20260506032008 | 66 | 201 | 0.9 | 7.8 | 0.00 | 0.00 | 0.00 | 67 | 1011.2 |
| 20260506031516 | 66 | 229 | 0.9 | 7.8 | 0.00 | 0.00 | 0.00 | 67 | 1011.2 |
| 20260506031009 | 66 | 113 | 1.7 | 7.8 | 0.00 | 0.00 | 0.00 | 67 | 1011.2 |
| 20260506030505 | 66 | 129 | 1.7 | 5.2 | 0.00 | 0.00 | 0.00 | 67 | 1011.3 |
| 20260506030022 | 66 | 234 | 0.9 | 4.3 | 0.00 | 0.00 | 0.00 | 67 | 1011.2 |
| 20260506025508 | 66 | 206 | 0.0 | 4.3 | 0.00 | 0.00 | 0.00 | 67 | 1011.2 |
| 20260506025007 | 66 | 163 | 0.9 | 2.6 | 0.00 | 0.00 | 0.00 | 66 | 1011.3 |
| 20260506024514 | 66 | 157 | 0.9 | 5.2 | 0.00 | 0.00 | 0.00 | 66 | 1011.3 |
| 20260506024005 | 66 | 103 | 0.9 | 5.2 | 0.00 | 0.00 | 0.00 | 65 | 1011.3 |
| 20260506023504 | 66 | 9 | 1.7 | 5.2 | 0.00 | 0.00 | 0.00 | 1011.3 | |
| 20260506023009 | 66 | 223 | 0.9 | 4.3 | 0.00 | 0.00 | 0.00 | 64 | 1011.3 |
| 20260506022503 | 67 | 147 | 0.9 | 5.2 | 0.00 | 0.00 | 0.00 | 64 | 1011.3 |
| 20260506022004 | 67 | 192 | 1.7 | 5.2 | 0.00 | 0.00 | 0.00 | 64 | 1011.3 |
| 20260506021514 | 67 | 159 | 0.9 | 3.5 | 0.00 | 0.00 | 0.00 | 63 | 1011.3 |
| 20260506021005 | 67 | 217 | 0.9 | 3.5 | 0.00 | 0.00 | 0.00 | 63 | 1011.3 |
| 20260506020504 | 67 | 224 | 0.9 | 6.1 | 0.00 | 0.00 | 0.00 | 62 | 1011.3 |
| 20260506020020 | 67 | 211 | 1.7 | 6.1 | 0.00 | 0.00 | 0.00 | 62 | 1011.4 |
| 20260506015508 | 67 | 57 | 1.7 | 5.2 | 0.00 | 0.00 | 0.00 | 61 | 1011.3 |
| 20260506015009 | 67 | 207 | 0.9 | 9.6 | 0.00 | 0.00 | 0.00 | 61 | 1011.3 |
| 20260506014525 | 68 | 230 | 2.6 | 9.6 | 0.00 | 0.00 | 0.00 | 60 | 1011.3 |
| 20260506014008 | 68 | 186 | 0.0 | 4.3 | 0.00 | 0.00 | 0.00 | 60 | 1011.3 |
| 20260506013502 | 68 | 221 | 1.7 | 5.2 | 0.00 | 0.00 | 0.00 | 59 | 1011.2 |
| 20260506013008 | 68 | 30 | 0.9 | 7.0 | 0.00 | 0.00 | 0.00 | 58 | 1011.2 |
| 20260506012503 | 68 | 211 | 1.7 | 7.0 | 0.00 | 0.00 | 0.00 | 58 | 1011.2 |
| 20260506012004 | 69 | 175 | 2.6 | 7.0 | 0.00 | 0.00 | 0.00 | 58 | 1011.2 |
| 20260506011513 | 69 | 228 | 1.7 | 7.0 | 0.00 | 0.00 | 0.00 | 57 | 1011.2 |
| 20260506011010 | 69 | 152 | 1.7 | 5.2 | 0.00 | 0.00 | 0.00 | 57 | 1011.1 |
| 20260506010506 | 69 | 134 | 0.9 | 7.0 | 0.00 | 0.00 | 0.00 | 57 | 1011.0 |
| 20260506010019 | 69 | 317 | 0.0 | 7.0 | 0.00 | 0.00 | 0.00 | 56 | 1011.0 |
| 20260506005507 | 69 | 323 | 0.9 | 6.1 | 0.00 | 0.00 | 0.00 | 56 | 1010.9 |
| 20260506005007 | 70 | 218 | 0.9 | 6.1 | 0.00 | 0.00 | 0.00 | 55 | 1010.9 |
| 20260506004522 | 70 | 232 | 0.9 | 6.1 | 0.00 | 0.00 | 0.00 | 55 | 1010.8 |
| 20260506004006 | 70 | 157 | 0.9 | 6.1 | 0.00 | 0.00 | 0.00 | 55 | 1010.7 |
| 20260506003511 | 70 | 98 | 1.7 | 6.1 | 0.00 | 0.00 | 0.00 | 55 | 1010.7 |
| 20260506003026 | 70 | 333 | 0.9 | 8.7 | 0.00 | 0.00 | 0.00 | 55 | 1010.7 |
| 20260506002502 | 71 | 128 | 2.6 | 8.7 | 0.00 | 0.00 | 0.00 | 54 | 1010.6 |
| 20260506002003 | 71 | 248 | 2.6 | 8.7 | 0.00 | 0.00 | 0.00 | 54 | 1010.6 |
| 20260506001511 | 71 | 257 | 0.9 | 7.0 | 0.00 | 0.00 | 0.00 | 54 | 1010.7 |
| 20260506001003 | 72 | 164 | 1.7 | 7.0 | 0.00 | 0.00 | 0.00 | 53 | 1010.5 |
| 20260506000506 | 72 | 308 | 0.9 | 6.1 | 0.00 | 0.00 | 0.00 | 52 | 1010.6 |
| 20260506000015 | 72 | 215 | 0.9 | 7.8 | 0.00 | 0.00 | 0.00 | 52 | 1010.5 |
| 20260505235506 | 73 | 109 | 1.7 | 9.6 | 0.00 | 0.00 | 0.00 | 51 | 1010.4 |
| 20260505235006 | 73 | 180 | 3.5 | 9.6 | 0.00 | 0.00 | 0.00 | 51 | 1010.4 |
| 20260505234521 | 73 | 232 | 0.9 | 6.1 | 0.00 | 0.00 | 0.00 | 50 | 1010.3 |
| 20260505234006 | 74 | 157 | 1.7 | 7.8 | 0.00 | 0.00 | 0.00 | 49 | 1010.3 |
| 20260505233509 | 74 | 142 | 2.6 | 7.8 | 0.00 | 0.00 | 0.00 | 48 | 1010.1 |
| 20260505233025 | 74 | 65 | 1.7 | 6.1 | 0.00 | 0.00 | 0.00 | 47 | 1010.0 |
| 20260505232507 | 74 | 149 | 2.6 | 9.6 | 0.00 | 0.00 | 0.00 | 47 | 1010.0 |
| 20260505232011 | 75 | 14 | 0.9 | 9.6 | 0.00 | 0.00 | 0.00 | 46 | 1010.0 |
| 20260505231508 | 75 | 232 | 1.7 | 7.0 | 0.00 | 0.00 | 0.00 | 45 | 1009.9 |
| 20260505231003 | 75 | 239 | 1.7 | 7.0 | 0.00 | 0.00 | 0.00 | 44 | 1009.8 |
| 20260505230504 | 76 | 214 | 2.6 | 8.7 | 0.00 | 0.00 | 0.00 | 44 | 1009.7 |
| 20260505230013 | 76 | 281 | 0.9 | 8.7 | 0.00 | 0.00 | 0.00 | 43 | 1009.8 |
| 20260505225504 | 76 | 259 | 2.6 | 8.7 | 0.00 | 0.00 | 0.00 | 42 | 1009.8 |
| 20260505225007 | 77 | 28 | 1.7 | 7.8 | 0.00 | 0.00 | 0.00 | 41 | 1009.8 |
| 20260505224520 | 78 | 285 | 1.7 | 7.0 | 0.00 | 0.00 | 0.00 | 41 | 1009.7 |
| 20260505224008 | 78 | 311 | 2.6 | 8.7 | 0.00 | 0.00 | 0.00 | 40 | 1009.7 |
| 20260505223510 | 78 | 182 | 2.6 | 8.7 | 0.00 | 0.00 | 0.00 | 39 | 1009.6 |
| 20260505223030 | 79 | 344 | 1.7 | 10.4 | 0.00 | 0.00 | 0.00 | 39 | 1009.5 |
| 20260505222509 | 79 | 202 | 2.6 | 12.2 | 0.00 | 0.00 | 0.00 | 39 | 1009.4 |
| 20260505222013 | 79 | 215 | 2.6 | 12.2 | 0.00 | 0.00 | 0.00 | 37 | 1009.3 |
| 20260505221528 | 79 | 39 | 2.6 | 11.3 | 0.00 | 0.00 | 0.00 | 37 | 1009.4 |
| 20260505221010 | 79 | 194 | 4.3 | 11.3 | 0.00 | 0.00 | 0.00 | 37 | 1009.4 |
| 20260505220502 | 80 | 245 | 1.7 | 10.4 | 0.00 | 0.00 | 0.00 | 37 | 1009.4 |
| 20260505220013 | 80 | 172 | 4.3 | 10.4 | 0.00 | 0.00 | 0.00 | 36 | 1009.4 |
| 20260505215503 | 80 | 42 | 2.6 | 9.6 | 0.00 | 0.00 | 0.00 | 36 | 1009.4 |
| 20260505215006 | 80 | 134 | 2.6 | 13.0 | 0.00 | 0.00 | 0.00 | 36 | 1009.2 |
| 20260505214524 | 80 | 321 | 2.6 | 13.0 | 0.00 | 0.00 | 0.00 | 35 | 1009.2 |
| 20260505214008 | 81 | 34 | 5.2 | 13.0 | 0.00 | 0.00 | 0.00 | 35 | 1009.4 |
| 20260505213507 | 81 | 304 | 1.7 | 8.7 | 0.00 | 0.00 | 0.00 | 35 | 1009.0 |
| 20260505213022 | 81 | 63 | 2.6 | 11.3 | 0.00 | 0.00 | 0.00 | 34 | 1009.1 |
| 20260505212506 | 81 | 288 | 2.6 | 11.3 | 0.00 | 0.00 | 0.00 | 35 | 1009.1 |
| 20260505212011 | 81 | 217 | 2.6 | 13.0 | 0.00 | 0.00 | 0.00 | 34 | 1008.9 |
| 20260505211530 | 81 | 182 | 5.2 | 13.0 | 0.00 | 0.00 | 0.00 | 33 | 1009.0 |
| 20260505211007 | 81 | 128 | 2.6 | 12.2 | 0.00 | 0.00 | 0.00 | 34 | 1008.9 |
| 20260505210508 | 81 | 183 | 4.3 | 12.2 | 0.00 | 0.00 | 0.00 | 34 | 1009.0 |
| 20260505210027 | 82 | 296 | 2.6 | 10.4 | 0.00 | 0.00 | 0.00 | 34 | 1008.8 |
| 20260505205502 | 82 | 223 | 3.5 | 14.8 | 0.00 | 0.00 | 0.00 | 34 | 1008.7 |
| 20260505205007 | 82 | 360 | 4.3 | 14.8 | 0.00 | 0.00 | 0.00 | 33 | 1008.7 |
| 20260505204517 | 82 | 249 | 5.2 | 13.0 | 0.00 | 0.00 | 0.00 | 34 | 1008.7 |
| 20260505204008 | 82 | 74 | 3.5 | 10.4 | 0.00 | 0.00 | 0.00 | 34 | 1008.7 |
| 20260505203507 | 82 | 174 | 3.5 | 13.0 | 0.00 | 0.00 | 0.00 | 34 | 1008.7 |
| 20260505203019 | 83 | 184 | 6.1 | 13.0 | 0.00 | 0.00 | 0.00 | 34 | 1008.7 |
| 20260505202507 | 83 | 173 | 4.3 | 14.8 | 0.00 | 0.00 | 0.00 | 34 | 1008.9 |